Tracking 30072 objects as of 14-Jan-2025
HD Live streaming from Space Station
objects crossing your sky now

STARLINK-2619

Track STARLINK-2619 now!
10-day predictions
STARLINK-2619 is classified as:


NORAD ID: 48475
Int'l Code: 2021-040AZ
Perigee: 523.3 km
Apogee: 525.6 km
Inclination: 53.1 °
Period: 95.0 minutes
Semi major axis: 6895 km
RCS: Unknown
Launch date: May 9, 2021
Source: United States (US)
Launch site: AIR FORCE EASTERN TEST RANGE (AFETR)
Your satellite tracking list
Your tracking list is empty




NASA's NSSDC Master Catalog

Two Line Element Set (TLE):
1 48475U 21040AZ  25013.43296809  .00019480  00000-0  10095-2 0  9996
2 48475  53.0534 273.4535 0001659  23.7217 336.3852 15.16204647203216
Source of the keplerian elements: AFSPC